TimeCST,TemperatureF,Dew PointF,Humidity,Sea Level PressureIn,VisibilityMPH,Wind Direction,Wind SpeedMPH,Gust SpeedMPH,PrecipitationIn,Events,Conditions,WindDirDegrees,DateUTC
12:15 AM,33.8,32.0,93,30.02,10.0,NE,4.6,-,N/A,,Overcast,40,2013-02-21 06:15:00
12:35 AM,33.8,32.0,93,30.02,10.0,NNE,6.9,-,N/A,,Overcast,30,2013-02-21 06:35:00
12:55 AM,32.0,32.0,100,30.02,10.0,NNE,9.2,-,N/A,,Overcast,20,2013-02-21 06:55:00
1:15 AM,32.0,32.0,100,30.00,10.0,NNE,6.9,-,N/A,,Overcast,20,2013-02-21 07:15:00
1:35 AM,32.0,32.0,100,29.99,10.0,NNE,8.1,-,N/A,,Overcast,30,2013-02-21 07:35:00
1:55 AM,32.0,32.0,100,29.98,10.0,NNE,3.5,-,N/A,,Overcast,20,2013-02-21 07:55:00
2:15 AM,35.6,32.0,87,29.96,10.0,ENE,8.1,-,N/A,,Overcast,70,2013-02-21 08:15:00
2:35 AM,35.6,32.0,87,29.94,10.0,NE,8.1,-,N/A,,Overcast,50,2013-02-21 08:35:00
2:55 AM,33.8,32.0,93,29.93,10.0,North,4.6,-,0.01,,Overcast,10,2013-02-21 08:55:00
3:15 AM,33.8,32.0,93,29.93,10.0,North,4.6,-,N/A,,Overcast,10,2013-02-21 09:15:00
3:35 AM,35.6,32.0,87,29.91,10.0,NNE,3.5,-,N/A,,Overcast,30,2013-02-21 09:35:00
3:55 AM,33.8,32.0,93,29.88,10.0,ENE,4.6,-,0.01,,Overcast,60,2013-02-21 09:55:00
4:15 AM,35.6,32.0,87,29.87,10.0,East,13.8,23.0,N/A,Rain,Light Rain,90,2013-02-21 10:15:00
4:35 AM,35.6,32.0,87,29.87,7.0,East,16.1,23.0,0.02,Rain,Light Rain,100,2013-02-21 10:35:00
4:55 AM,35.6,32.0,87,29.87,7.0,ESE,12.7,20.7,0.04,Thunderstorm,Overcast,110,2013-02-21 10:55:00
5:15 AM,35.6,32.0,87,29.86,10.0,East,12.7,19.6,N/A,Thunderstorm,Overcast,100,2013-02-21 11:15:00
5:55 AM,35.6,32.0,87,29.82,10.0,East,12.7,21.9,0.02,,Overcast,100,2013-02-21 11:55:00
6:15 AM,35.6,32.0,87,29.80,10.0,East,13.8,26.5,N/A,,Overcast,100,2013-02-21 12:15:00
6:35 AM,35.6,32.0,87,29.80,10.0,East,12.7,20.7,0.01,,Overcast,90,2013-02-21 12:35:00
6:55 AM,35.6,32.0,87,29.79,10.0,ESE,10.4,21.9,0.02,,Overcast,110,2013-02-21 12:55:00
7:15 AM,35.6,32.0,87,29.78,10.0,East,11.5,17.3,0.01,,Overcast,100,2013-02-21 13:15:00
7:35 AM,37.4,32.0,81,29.76,10.0,East,11.5,20.7,0.02,Thunderstorm,Overcast,100,2013-02-21 13:35:00
7:55 AM,37.4,33.8,87,29.76,10.0,East,12.7,17.3,0.04,Thunderstorm,Overcast,90,2013-02-21 13:55:00
8:15 AM,37.4,33.8,87,29.74,2.5,East,12.7,18.4,0.05,Rain-Thunderstorm,Heavy Thunderstorms and Rain,100,2013-02-21 14:15:00
8:35 AM,35.6,33.8,93,29.74,10.0,East,9.2,18.4,0.07,,Overcast,90,2013-02-21 14:35:00
8:55 AM,35.6,33.8,93,29.75,10.0,East,12.7,17.3,0.09,Rain,Light Rain,100,2013-02-21 14:55:00
9:15 AM,35.6,33.8,93,29.74,10.0,East,9.2,-,0.03,Rain-Thunderstorm,Light Thunderstorms and Rain,90,2013-02-21 15:15:00
9:35 AM,35.6,33.8,93,29.83,4.0,Calm,Calm,-,0.05,Rain,Rain,0,2013-02-21 15:35:00
9:55 AM,35.6,33.8,93,29.82,1.8,NNW,3.5,-,0.09,Rain,Light Rain,340,2013-02-21 15:55:00
10:15 AM,35.6,35.6,100,29.85,1.8,North,8.1,-,0.03,Rain-Thunderstorm,Light Thunderstorms and Rain,10,2013-02-21 16:15:00
10:35 AM,35.6,35.6,100,29.85,1.0,NNE,6.9,-,0.06,Thunderstorm,Thunderstorm,20,2013-02-21 16:35:00
10:55 AM,35.6,35.6,100,29.82,2.0,ENE,5.8,-,0.09,,Overcast,60,2013-02-21 16:55:00
11:15 AM,35.6,35.6,100,29.84,2.0,North,5.8,-,0.01,,Overcast,350,2013-02-21 17:15:00
11:35 AM,35.6,35.6,100,29.82,1.5,Calm,Calm,-,0.03,,Overcast,0,2013-02-21 17:35:00
11:55 AM,35.6,35.6,100,29.81,1.2,North,4.6,-,0.05,,Drizzle,360,2013-02-21 17:55:00
12:15 PM,35.6,35.6,100,29.80,1.2,North,3.5,-,0.02,Rain,Rain,360,2013-02-21 18:15:00
12:35 PM,35.6,35.6,100,29.78,1.2,Calm,Calm,-,0.03,Rain,Light Rain,0,2013-02-21 18:35:00
12:55 PM,35.6,35.6,100,29.76,2.5,East,5.8,-,0.05,,Light Drizzle,90,2013-02-21 18:55:00
1:15 PM,35.6,35.6,100,29.74,5.0,East,6.9,-,0.02,,Overcast,80,2013-02-21 19:15:00
1:35 PM,35.6,35.6,100,29.72,10.0,East,6.9,-,0.04,,Overcast,90,2013-02-21 19:35:00
1:55 PM,35.6,35.6,100,29.72,10.0,ENE,3.5,-,0.05,,Overcast,60,2013-02-21 19:55:00
2:15 PM,37.4,35.6,93,29.70,10.0,Calm,Calm,-,0.01,,Overcast,0,2013-02-21 20:15:00
2:35 PM,35.6,35.6,100,29.70,10.0,North,3.5,-,0.02,,Overcast,10,2013-02-21 20:35:00
2:55 PM,35.6,35.6,100,29.71,10.0,North,3.5,-,0.03,,Overcast,350,2013-02-21 20:55:00
3:15 PM,35.6,35.6,100,29.72,10.0,Calm,Calm,-,0.01,,Overcast,0,2013-02-21 21:15:00
3:35 PM,37.4,35.6,93,29.74,10.0,Calm,Calm,-,0.01,,Overcast,0,2013-02-21 21:35:00
3:55 PM,37.4,35.6,93,29.75,10.0,Calm,Calm,-,0.01,,Overcast,0,2013-02-21 21:55:00
4:15 PM,35.6,35.6,100,29.76,10.0,Calm,Calm,-,N/A,,Overcast,0,2013-02-21 22:15:00
4:35 PM,37.4,35.6,93,29.78,10.0,Calm,Calm,-,N/A,,Overcast,0,2013-02-21 22:35:00
4:55 PM,35.6,35.6,100,29.79,10.0,North,3.5,-,N/A,,Overcast,10,2013-02-21 22:55:00
5:15 PM,35.6,35.6,100,29.80,10.0,NNE,4.6,-,N/A,,Overcast,20,2013-02-21 23:15:00
5:35 PM,35.6,35.6,100,29.80,10.0,NNE,4.6,-,N/A,,Overcast,20,2013-02-21 23:35:00
5:55 PM,35.6,35.6,100,29.80,10.0,Calm,Calm,-,N/A,,Overcast,0,2013-02-21 23:55:00
6:15 PM,35.6,35.6,100,29.80,10.0,Calm,Calm,-,N/A,,Overcast,0,2013-02-22 00:15:00
6:35 PM,35.6,35.6,100,29.80,10.0,Calm,Calm,-,N/A,,Overcast,0,2013-02-22 00:35:00
6:55 PM,35.6,35.6,100,29.82,10.0,North,4.6,-,N/A,,Overcast,350,2013-02-22 00:55:00
7:15 PM,35.6,35.6,100,29.82,10.0,Calm,Calm,-,N/A,,Overcast,0,2013-02-22 01:15:00
7:35 PM,35.6,35.6,100,29.83,10.0,Calm,Calm,-,N/A,,Mostly Cloudy,0,2013-02-22 01:35:00
7:55 PM,35.6,35.6,100,29.84,10.0,Calm,Calm,-,N/A,,Overcast,0,2013-02-22 01:55:00
8:15 PM,35.6,35.6,100,29.85,10.0,Calm,Calm,-,N/A,,Overcast,0,2013-02-22 02:15:00
8:35 PM,35.6,35.6,100,29.87,10.0,North,3.5,-,N/A,,Overcast,350,2013-02-22 02:35:00
8:55 PM,35.6,35.6,100,29.88,7.0,North,3.5,-,N/A,,Overcast,350,2013-02-22 02:55:00
9:15 PM,35.6,35.6,100,29.90,7.0,North,3.5,-,N/A,,Overcast,350,2013-02-22 03:15:00
9:35 PM,35.6,35.6,100,29.91,7.0,Calm,Calm,-,N/A,,Overcast,0,2013-02-22 03:35:00
9:55 PM,35.6,35.6,100,29.92,7.0,Calm,Calm,-,N/A,,Overcast,0,2013-02-22 03:55:00
10:15 PM,35.6,35.6,100,29.93,7.0,Calm,Calm,-,N/A,,Overcast,0,2013-02-22 04:15:00
10:35 PM,35.6,35.6,100,29.93,7.0,Calm,Calm,-,N/A,,Overcast,0,2013-02-22 04:35:00
10:55 PM,35.6,35.6,100,29.93,7.0,Calm,Calm,-,N/A,,Overcast,0,2013-02-22 04:55:00
11:15 PM,35.6,35.6,100,29.94,5.0,Calm,Calm,-,N/A,,Overcast,0,2013-02-22 05:15:00
11:35 PM,35.6,35.6,100,29.94,5.0,Calm,Calm,-,N/A,,Overcast,0,2013-02-22 05:35:00
11:55 PM,35.6,35.6,100,29.94,5.0,Calm,Calm,-,N/A,,Overcast,0,2013-02-22 05:55:00